Date,TemperatureHighF,TemperatureAvgF,TemperatureLowF,DewpointHighF,DewpointAvgF,DewpointLowF,HumidityHigh,HumidityAvg,HumidityLow,PressureMaxIn,PressureMinIn,WindSpeedMaxMPH,WindSpeedAvgMPH,GustSpeedMaxMPH,PrecipitationSumIn
2013-1-1,48,42,38,37,34,30,93,76,58,30.29,30.22,4,1,11,0.00
2013-1-2,51,43,36,36,32,29,80,67,47,30.26,30.16,5,1,8,0.00
2013-1-3,50,42,36,41,37,32,90,81,69,30.28,30.17,2,0,4,0.00
2013-1-4,53,45,40,38,35,33,84,71,51,30.30,30.19,2,1,7,0.00
2013-1-5,50,44,40,46,41,37,96,90,81,30.27,30.09,3,0,6,0.31
2013-1-6,47,43,41,46,42,40,100,96,92,30.20,30.08,5,1,7,0.01
2013-1-7,55,47,40,48,44,39,97,90,76,30.26,30.17,6,1,10,0.00
2013-1-8,54,46,39,48,43,38,98,90,77,30.25,30.14,3,0,4,0.00
2013-1-9,51,45,40,49,42,36,98,90,73,30.16,29.99,10,2,12,0.00
2013-1-10,46,41,36,36,34,32,90,77,58,30.19,30.07,8,3,12,0.00
2013-1-11,48,43,37,39,35,32,93,76,61,30.25,30.13,7,3,9,0.00
2013-1-12,46,39,33,36,31,26,95,74,47,30.26,30.15,2,0,3,0.00
2013-1-13,46,38,31,26,22,14,75,53,33,30.27,30.19,3,0,8,0.00
2013-1-14,46,38,32,25,20,16,61,47,34,30.42,30.24,5,1,9,0.00
2013-1-15,49,41,35,30,27,23,74,59,42,30.49,30.40,2,0,5,0.00
2013-1-16,52,43,35,36,31,-100,86,66,46,30.44,30.27,2,-10,5,0.00
2013-1-17,58,48,39,37,31,25,81,54,34,30.28,30.17,4,1,8,0.00
2013-1-18,58,49,41,37,32,24,82,55,34,30.24,30.15,5,1,7,0.00
2013-1-19,58,51,43,38,30,23,60,44,37,30.27,30.18,3,1,7,0.00
2013-1-20,58,51,42,34,29,23,65,44,32,30.25,30.15,4,1,9,0.00
2013-1-21,59,49,40,40,34,25,81,57,40,30.19,30.11,5,0,5,0.00
2013-1-22,59,49,42,43,40,36,82,71,51,30.13,30.02,3,0,4,0.00
2013-1-23,51,48,46,49,45,42,96,89,82,30.11,29.97,6,0,9,0.13
2013-1-24,57,52,47,53,50,46,97,92,84,30.20,30.08,3,0,6,0.00
2013-1-25,62,55,50,56,52,49,98,90,77,30.20,30.05,5,1,7,0.00
2013-1-26,55,50,45,52,44,38,97,82,57,30.06,29.98,9,2,12,0.00
2013-1-27,50,45,40,40,37,32,86,74,50,30.17,30.05,9,3,11,0.00
2013-1-28,54,46,41,43,39,36,87,77,57,30.28,30.16,10,4,12,0.00
2013-1-29,55,48,43,44,41,38,84,75,56,30.36,30.27,8,3,11,0.00
2013-1-30,60,52,44,45,43,40,88,73,53,30.35,30.26,3,1,5,0.00
2013-1-31,61,51,43,47,44,40,93,79,62,30.30,30.19,2,0,4,0.00
2013-2-1,61,52,45,47,45,42,93,77,58,30.22,30.13,5,1,8,0.00
2013-2-2,60,51,44,50,46,43,94,83,66,30.29,30.21,5,1,6,0.00
2013-2-3,56,48,41,47,44,40,96,86,71,30.25,30.14,4,1,9,0.00
2013-2-4,58,48,41,52,46,40,98,91,78,30.18,30.07,5,1,6,0.00
2013-2-5,54,48,43,48,44,41,97,89,79,30.15,30.07,7,1,11,0.00
2013-2-6,55,47,40,45,42,38,95,82,63,30.19,30.12,6,2,10,0.00
2013-2-7,51,45,41,46,42,38,95,88,72,30.18,30.00,4,1,10,0.06
2013-2-8,50,44,39,43,39,37,96,85,68,30.02,29.94,5,1,11,0.01
2013-2-9,54,46,38,36,32,27,84,61,36,30.09,30.00,5,1,7,0.00
2013-2-10,55,47,38,40,36,31,80,66,52,30.13,30.03,5,1,6,0.00
2013-2-11,58,50,42,39,32,25,74,51,33,30.23,30.08,4,1,7,0.00
2013-2-12,58,47,40,41,38,34,91,71,43,30.36,30.23,4,1,4,0.00
2013-2-13,61,50,40,44,40,37,88,70,43,30.34,30.21,5,1,7,0.00
2013-2-14,65,55,45,45,42,38,81,63,47,30.25,30.16,3,1,8,0.00
2013-2-15,66,58,50,44,40,36,65,53,40,30.27,30.22,5,0,8,0.00
2013-2-16,65,56,48,48,45,41,87,68,49,30.23,30.04,3,0,4,0.00
2013-2-17,62,51,43,48,42,39,96,76,44,30.05,29.97,4,1,6,0.00
2013-2-18,50,46,42,43,41,37,94,83,69,30.03,29.95,7,1,11,0.00
2013-2-19,45,42,38,44,39,35,95,87,76,29.96,29.74,12,2,15,0.38
2013-2-20,54,45,37,41,37,33,90,74,49,30.06,29.85,8,4,11,0.00
2013-2-21,56,46,39,39,36,30,88,70,38,30.18,30.05,8,2,10,0.00
2013-2-22,59,49,38,44,39,35,93,72,44,30.25,30.18,7,1,11,0.00
2013-2-23,55,49,44,46,39,33,91,71,45,30.25,30.16,9,4,12,0.00
2013-2-24,59,50,44,36,28,23,73,44,25,30.26,30.17,8,2,10,0.00
2013-2-25,59,49,41,44,40,31,93,72,54,30.27,30.17,7,1,11,0.00
2013-2-26,64,52,40,42,34,25,88,55,24,30.22,30.14,6,1,7,0.00
2013-2-27,65,54,41,44,37,30,78,55,32,30.36,30.21,6,1,8,0.00
2013-2-28,64,55,46,52,48,43,93,79,64,30.44,30.36,7,2,10,0.00
2013-3-1,68,58,47,54,45,-100,97,68,48,30.43,30.24,3,-16,7,0.00
2013-3-2,69,59,50,55,50,45,88,73,57,30.25,30.06,3,0,7,0.00
2013-3-3,61,53,46,50,47,44,93,79,58,30.09,30.02,6,1,11,0.00
2013-3-4,56,48,43,48,44,41,95,88,71,30.14,30.06,3,0,8,0.00
2013-3-5,54,48,40,45,42,38,95,82,67,30.06,29.84,7,1,10,0.15
2013-3-6,52,48,42,47,43,40,96,85,70,30.07,29.86,8,1,12,0.31
2013-3-7,54,47,40,46,41,39,97,82,61,30.00,29.86,3,0,6,0.01
2013-3-8,57,48,42,45,41,39,95,78,54,30.04,29.84,8,3,11,0.01
2013-3-9,64,51,39,45,41,37,96,71,43,30.30,30.05,7,2,9,0.00
2013-3-10,66,55,44,44,39,34,82,57,34,30.35,30.25,8,1,9,0.00
2013-3-11,69,56,44,48,38,31,68,52,36,30.25,30.10,4,1,8,0.00
2013-3-12,72,58,47,53,46,38,84,65,42,30.14,30.06,5,1,7,0.00
2013-3-13,72,62,50,56,51,45,88,70,50,30.15,30.06,5,1,7,0.00
2013-3-14,68,60,52,56,49,42,91,69,49,30.14,30.07,7,2,9,0.00
2013-3-15,70,57,47,51,46,42,87,69,43,30.12,30.03,8,2,9,0.00
2013-3-16,68,56,45,49,45,42,96,69,41,30.10,30.02,8,3,12,0.00
2013-3-17,66,55,45,45,43,41,86,65,42,30.14,30.04,9,2,12,0.00
2013-3-18,69,54,44,51,44,41,89,71,40,30.10,30.02,3,0,6,0.00
2013-3-19,67,54,47,48,44,37,95,73,43,30.13,30.05,5,1,9,0.07
2013-3-20,59,53,48,56,51,47,97,94,79,30.13,30.07,5,1,7,0.04
2013-3-21,60,52,41,50,45,40,96,79,56,30.12,30.01,6,1,8,0.00
2013-3-22,64,52,41,43,36,24,88,59,23,30.12,30.03,8,2,12,0.00
2013-3-23,66,54,42,40,34,26,85,51,26,30.14,30.04,7,1,10,0.00
2013-3-24,69,56,45,51,42,33,81,62,41,30.08,29.96,6,1,9,0.00
2013-3-25,58,50,43,47,44,41,95,80,62,30.01,29.94,4,0,7,0.00
2013-3-26,64,53,44,50,46,42,93,77,54,30.00,29.93,4,0,6,0.00
2013-3-27,61,52,47,53,49,43,96,87,74,30.02,29.95,7,1,9,0.00
2013-3-28,65,57,51,58,53,49,97,88,71,30.08,30.01,4,1,8,0.04
2013-3-29,73,60,49,55,51,48,95,75,51,30.09,30.01,5,1,8,0.00
2013-3-30,66,57,53,55,52,50,95,83,65,30.05,29.97,6,1,10,0.02
2013-3-31,67,57,52,56,53,50,97,85,56,30.06,30.00,3,0,6,0.08
2013-4-1,60,55,50,57,52,48,97,90,74,30.15,30.05,6,0,9,0.70
2013-4-2,65,54,46,56,50,45,97,87,65,30.18,30.08,6,1,7,0.00
2013-4-3,73,58,46,58,51,45,97,80,51,30.13,29.98,6,1,7,0.00
2013-4-4,61,55,51,59,53,48,98,92,78,30.12,29.98,5,0,7,0.33
2013-4-5,61,56,52,56,52,50,96,87,75,30.18,30.12,4,1,9,0.01
2013-4-6,62,55,51,56,52,49,95,91,81,30.19,30.13,2,0,6,0.00
2013-4-7,59,53,50,54,50,47,96,89,75,30.16,29.83,8,1,13,0.06
2013-4-8,64,53,45,49,40,26,95,66,24,30.03,29.79,11,5,18,0.01
2013-4-9,70,60,47,45,38,27,88,50,20,30.10,30.03,7,2,13,0.00
2013-4-10,79,68,57,54,48,36,66,50,33,30.16,30.01,8,2,12,0.00
2013-4-11,69,60,50,52,48,45,85,65,41,30.03,29.83,7,1,8,0.00
2013-4-12,72,57,46,54,47,42,96,71,36,29.90,29.82,5,0,7,0.00
2013-4-13,67,56,46,51,45,40,95,68,49,29.89,29.81,6,1,10,0.00
2013-4-14,64,53,46,47,39,32,86,63,36,29.93,29.83,7,2,16,0.00
2013-4-15,58,50,44,46,40,35,92,72,50,29.95,29.85,11,4,20,0.00
2013-4-16,63,53,42,41,34,21,78,53,20,30.16,29.95,7,2,13,0.00
2013-4-17,66,58,51,38,30,22,62,36,20,30.27,30.16,10,2,12,0.00
2013-4-18,73,61,49,42,38,33,67,44,25,30.26,30.18,5,1,7,0.00
2013-4-19,79,65,52,55,46,36,65,51,36,30.21,30.05,8,1,11,0.00
2013-4-20,77,65,55,49,45,39,72,51,28,30.10,29.97,7,2,12,0.00
2013-4-21,82,68,51,49,45,40,76,47,24,30.03,29.92,5,1,7,0.00
2013-4-22,85,71,58,51,44,36,61,39,21,29.96,29.83,5,1,8,0.00
2013-4-23,80,67,52,46,36,26,69,35,15,29.93,29.84,6,1,9,0.00
2013-4-24,72,56,46,51,46,39,90,72,31,29.93,29.82,5,1,8,0.00
2013-4-25,62,54,49,53,49,46,91,82,68,30.13,29.93,4,1,7,0.00
2013-4-26,68,56,47,55,49,45,95,79,57,30.22,30.12,4,0,6,0.00
2013-4-27,76,60,46,59,51,44,96,74,47,30.21,30.06,3,1,7,0.00
2013-4-28,84,66,48,58,52,45,93,63,32,30.06,29.87,5,1,6,0.00
2013-4-29,85,72,58,54,51,47,75,51,28,29.89,29.74,5,2,7,0.00
2013-4-30,78,68,57,51,44,29,74,47,23,29.84,29.77,6,2,9,0.00
2013-5-1,80,71,58,42,28,18,50,22,11,30.07,29.84,6,1,12,0.00
2013-5-2,86,73,60,40,31,23,47,23,12,30.15,30.06,3,1,7,0.00
2013-5-3,88,75,62,50,38,27,41,27,21,30.06,29.77,5,1,6,0.00
2013-5-4,86,69,53,50,43,34,88,44,21,29.77,29.54,7,1,11,0.00
2013-5-5,68,58,53,52,50,48,87,74,53,29.81,29.58,5,0,10,0.00
2013-5-6,69,60,53,54,52,50,90,76,54,29.96,29.81,5,1,8,0.00
2013-5-7,69,60,53,55,52,49,91,76,53,30.03,29.95,5,1,6,0.00
2013-5-8,63,55,51,53,51,48,93,85,69,30.14,30.03,3,0,5,0.00
2013-5-9,67,57,50,54,50,48,94,80,62,30.16,30.08,4,0,7,0.00
2013-5-10,73,59,50,59,52,48,95,80,59,30.17,30.09,3,0,5,0.00
2013-5-11,87,67,50,62,54,48,95,66,28,30.14,30.03,4,0,6,0.00
2013-5-12,80,67,54,59,51,41,87,60,34,30.12,30.01,8,1,9,0.00
2013-5-13,78,66,50,58,53,47,93,66,45,30.07,29.93,5,0,7,0.00
2013-5-14,73,61,51,55,50,46,93,70,50,29.99,29.91,5,0,7,0.00
2013-5-15,69,58,48,51,49,45,92,74,52,30.04,29.98,3,0,6,0.00
2013-5-16,69,59,53,56,52,49,87,78,63,30.02,29.95,5,1,8,0.00
2013-5-17,70,57,49,51,48,45,92,73,49,30.07,29.96,6,1,7,0.00
2013-5-18,73,61,48,53,49,46,95,67,42,30.12,30.06,4,1,8,0.00
2013-5-19,80,67,50,51,46,42,89,52,27,30.11,29.97,6,1,10,0.00
2013-5-20,89,71,56,47,43,32,69,40,16,29.99,29.90,6,2,9,0.00
2013-5-21,72,60,51,50,45,40,84,60,32,29.96,29.88,8,1,11,0.00
2013-5-22,65,55,46,42,36,26,74,52,23,30.01,29.90,10,3,13,0.00
2013-5-23,68,57,45,45,42,40,84,61,40,30.00,29.90,3,1,7,0.00
2013-5-24,70,58,46,49,44,40,92,63,37,29.99,29.93,4,0,8,0.00
2013-5-25,67,57,47,49,47,45,92,72,50,30.03,29.95,5,1,8,0.00
2013-5-26,70,59,52,54,51,48,92,78,58,30.11,30.03,5,1,8,0.00
2013-5-27,63,57,50,57,52,46,94,85,73,30.11,29.99,4,1,9,0.02
2013-5-28,70,61,55,60,55,50,97,82,60,30.00,29.91,5,1,7,0.00
2013-5-29,70,62,55,56,52,45,85,70,53,29.96,29.89,5,1,9,0.00
2013-5-30,76,63,49,51,47,44,93,60,36,29.98,29.92,5,1,7,0.00
2013-5-31,85,69,50,52,47,44,87,51,26,30.00,29.90,5,1,8,0.00
2013-6-1,90,76,59,52,48,46,68,42,22,29.91,29.75,5,2,9,0.00
2013-6-2,84,69,56,55,51,47,79,55,35,29.75,29.64,3,1,6,0.00
2013-6-3,74,61,52,55,52,49,92,73,49,29.84,29.69,8,1,14,0.00
2013-6-4,67,58,52,55,52,50,93,80,63,29.95,29.83,4,1,7,0.00
2013-6-5,71,59,52,54,51,49,91,76,56,29.98,29.90,5,0,7,0.00
2013-6-6,76,63,51,58,53,49,93,73,52,29.94,29.83,5,0,6,0.00
2013-6-7,94,73,52,64,56,50,94,60,33,29.86,29.70,6,1,8,0.00
2013-6-8,103,78,58,63,56,50,87,51,23,29.76,29.66,6,1,10,0.00
2013-6-9,68,59,55,57,54,53,95,86,67,29.86,29.76,10,3,13,0.00
2013-6-10,68,59,54,54,53,51,91,80,58,29.95,29.77,8,2,10,0.00
2013-6-11,74,62,54,57,53,50,91,74,51,29.98,29.89,2,0,6,0.00
2013-6-12,78,65,51,53,49,44,89,59,35,29.97,29.89,3,0,7,0.00
2013-6-13,79,65,49,50,46,38,88,54,25,30.07,29.97,5,1,7,0.00
2013-6-14,86,70,55,50,44,35,78,43,18,29.98,29.81,5,1,7,0.00
2013-6-15,72,60,50,52,49,45,89,69,48,29.98,29.80,4,0,7,0.00
2013-6-16,80,65,50,53,48,46,92,60,30,30.05,29.97,8,2,13,0.00
2013-6-17,77,64,52,56,52,47,87,66,43,30.06,30.00,5,1,10,0.00
2013-6-18,70,61,53,52,50,47,91,70,47,30.01,29.96,9,2,12,0.00
2013-6-19,73,62,52,49,47,45,81,59,38,30.04,29.98,9,2,11,0.00
2013-6-20,79,65,51,52,47,42,85,55,31,30.00,29.93,6,1,11,0.00
2013-6-21,83,67,51,51,48,43,90,55,28,29.96,29.89,4,1,7,0.00
2013-6-22,88,70,53,52,48,41,82,52,21,29.91,29.82,5,1,10,0.00
2013-6-23,63,60,56,60,56,52,92,88,76,29.86,29.81,3,0,6,0.00
2013-6-24,63,60,57,60,57,55,95,90,84,29.90,29.78,3,0,5,0.01
2013-6-25,69,64,60,67,62,58,96,93,88,29.99,29.88,3,0,6,0.06
2013-6-26,80,70,62,67,62,59,97,78,60,30.04,29.96,8,1,10,0.01
2013-6-27,86,73,58,64,59,55,96,66,37,30.06,29.99,5,1,8,0.00
2013-6-28,97,82,65,65,58,50,79,47,23,30.01,29.87,5,2,9,0.00
2013-6-29,102,85,68,60,54,49,59,36,23,29.88,29.76,7,2,10,0.00
2013-6-30,94,81,66,59,56,53,67,44,26,29.80,29.73,4,1,8,0.00
2013-7-1,100,81,62,64,58,54,79,49,29,29.81,29.75,5,0,6,0.00
2013-7-2,100,81,68,62,58,55,66,48,27,29.87,29.78,3,0,7,0.00
2013-7-3,95,77,58,65,58,54,94,58,30,29.87,29.74,3,1,6,0.00
2013-7-4,96,81,68,64,58,48,69,47,30,29.75,29.64,6,1,9,0.00
2013-7-5,72,63,55,55,53,50,88,71,52,29.75,29.67,5,1,10,0.00
2013-7-6,74,61,54,55,53,51,92,77,52,29.79,29.72,3,0,6,0.00
2013-7-7,81,63,52,57,53,50,96,73,38,29.84,29.76,5,1,7,0.00
2013-7-8,82,65,51,57,53,49,95,70,38,29.95,29.84,5,1,7,0.00
2013-7-9,92,74,53,61,54,36,95,57,14,30.00,29.90,6,2,8,0.00
2013-7-10,87,68,54,57,50,34,89,60,15,29.94,29.87,3,1,8,0.00
2013-7-11,74,60,52,56,52,50,92,77,51,29.92,29.86,3,0,8,0.00
2013-7-12,77,63,53,57,52,47,92,70,43,29.92,29.86,3,0,5,0.00
2013-7-13,84,69,54,56,51,45,90,57,28,29.93,29.88,3,0,6,0.00
2013-7-14,83,65,52,55,51,45,90,63,36,29.96,29.87,3,0,5,0.00
2013-7-15,68,57,51,55,52,49,93,82,61,29.90,29.82,3,1,6,0.00
2013-7-16,66,59,55,56,53,51,90,83,69,30.02,29.85,4,1,7,0.00
2013-7-17,78,64,56,59,55,52,91,74,50,30.08,30.01,3,0,4,0.00
2013-7-18,85,67,51,58,52,45,95,65,25,30.04,29.92,6,0,7,0.00
2013-7-19,87,68,52,60,54,50,94,66,32,29.92,29.80,5,0,6,0.00
2013-7-20,87,68,54,60,54,51,92,67,35,29.82,29.71,2,0,5,0.00
2013-7-21,82,66,53,57,53,48,92,66,30,29.86,29.74,4,1,7,0.00
2013-7-22,80,64,54,60,56,52,96,76,49,29.94,29.85,3,1,7,0.00
2013-7-23,81,68,58,58,54,48,87,64,35,29.98,29.91,5,1,7,0.00
2013-7-24,87,73,60,58,53,45,82,53,24,29.96,29.87,6,1,8,0.00
2013-7-25,83,69,58,58,54,51,81,61,40,29.98,29.89,3,0,4,0.00
2013-7-26,82,66,54,59,55,51,91,69,44,30.06,29.98,3,0,6,0.00
2013-7-27,75,63,55,58,55,53,94,77,53,30.00,29.84,4,0,5,0.00
2013-7-28,72,61,54,57,54,52,94,80,58,29.85,29.79,4,0,7,0.00
2013-7-29,66,58,54,56,53,52,92,84,67,30.00,29.82,5,1,9,0.00
2013-7-30,72,61,52,57,54,51,96,78,57,30.08,30.00,4,0,7,0.00
2013-7-31,73,61,53,56,53,51,93,77,54,30.06,29.99,4,1,7,0.00
2013-8-1,71,61,52,55,52,50,94,75,53,30.05,29.95,3,1,6,0.00
2013-8-2,81,63,52,57,53,50,96,72,40,29.96,29.88,2,0,4,0.00
2013-8-3,76,63,53,57,53,50,94,74,46,29.96,29.89,3,0,5,0.00
2013-8-4,73,60,53,56,53,51,94,80,53,29.99,29.93,3,0,6,0.00
2013-8-5,73,60,53,56,53,51,93,81,55,30.01,29.92,4,0,5,0.00
2013-8-6,70,59,53,55,54,51,93,83,61,30.03,29.95,5,1,7,0.00
2013-8-7,66,59,55,56,55,53,94,85,71,30.10,30.03,6,1,9,0.00
2013-8-8,71,61,55,59,55,52,96,83,61,30.03,29.93,3,0,5,0.00
2013-8-9,69,60,54,57,55,52,94,84,64,29.98,29.91,4,0,7,0.00
2013-8-10,73,62,56,59,56,54,94,81,58,30.04,29.98,2,0,6,0.00
2013-8-11,78,63,55,59,55,53,95,78,46,30.01,29.92,6,0,8,0.00
2013-8-12,82,66,53,59,54,51,96,70,40,29.98,29.92,3,0,5,0.00
2013-8-13,89,70,54,59,53,47,93,60,25,29.97,29.89,5,0,8,0.00
2013-8-14,83,67,54,59,54,46,91,68,31,29.95,29.88,5,0,6,0.00
2013-8-15,82,67,59,64,61,58,96,83,53,29.94,29.89,6,0,7,0.00
2013-8-16,85,71,59,65,59,54,97,70,39,29.96,29.91,3,0,6,0.00
2013-8-17,81,67,57,61,57,54,92,73,47,29.96,29.84,2,0,7,0.00
2013-8-18,97,77,58,63,58,51,96,59,23,29.86,29.76,6,1,8,0.00
2013-8-19,95,77,67,63,57,53,69,52,33,29.85,29.76,7,1,13,0.00
2013-8-20,78,67,57,59,56,47,90,69,43,29.87,29.80,5,1,7,0.00
2013-8-21,75,63,56,57,55,53,94,77,47,29.92,29.84,4,0,7,0.00
2013-8-22,72,62,55,56,54,53,92,77,57,29.96,29.87,3,0,6,0.00
2013-8-23,76,63,56,59,55,53,92,77,52,29.91,29.79,2,0,5,0.00
2013-8-24,78,65,54,59,56,53,95,77,51,29.89,29.82,4,0,6,0.00
2013-8-25,78,66,60,63,60,57,94,81,57,29.93,29.87,5,1,10,0.00
2013-8-26,76,65,59,59,56,51,92,72,48,29.99,29.89,5,1,9,0.00
2013-8-27,81,67,55,57,55,51,94,68,35,29.89,29.80,6,1,12,0.00
2013-8-28,79,67,57,63,59,55,96,78,52,29.93,29.84,6,1,9,0.00
2013-8-29,78,68,59,64,60,57,96,78,55,30.04,29.93,8,1,9,0.00
2013-8-30,89,73,60,63,57,47,95,63,24,30.02,29.89,5,1,8,0.00
2013-8-31,83,68,57,59,57,54,91,70,45,29.94,29.87,3,0,5,0.00
2013-9-1,80,68,58,60,57,54,92,71,42,29.92,29.86,5,1,9,0.00
2013-9-2,78,68,62,63,61,56,91,77,53,29.94,29.86,4,0,6,0.00
2013-9-3,75,66,57,59,56,50,90,71,42,29.98,29.91,6,1,9,0.00
2013-9-4,77,66,57,59,57,54,95,76,47,30.01,29.92,5,1,9,0.00
2013-9-5,77,66,57,59,55,51,95,71,43,29.99,29.93,6,1,9,0.00
2013-9-6,88,72,55,57,51,42,94,55,21,29.97,29.82,4,1,9,0.00
2013-9-7,94,77,64,53,48,43,56,39,18,29.86,29.78,7,1,8,0.00
2013-9-8,92,78,61,58,53,45,76,44,20,29.84,29.73,6,1,8,0.00
2013-9-9,95,77,64,56,52,48,72,45,21,29.78,29.66,5,1,7,0.00
2013-9-10,73,64,58,60,57,54,91,78,61,29.88,29.69,5,1,8,0.00
2013-9-11,70,64,61,59,58,57,89,81,68,29.98,29.87,4,1,9,0.00
2013-9-12,77,65,58,63,59,56,92,83,58,29.97,29.87,2,0,6,0.00
2013-9-13,80,64,56,60,56,54,95,77,48,29.88,29.74,3,0,6,0.00
2013-9-14,71,61,55,59,56,53,94,83,64,29.80,29.72,3,0,6,0.00
2013-9-15,75,63,53,58,56,52,96,80,54,29.85,29.77,5,1,10,0.00
2013-9-16,79,65,57,61,57,55,97,79,46,29.88,29.77,4,0,6,0.00
2013-9-17,72,63,56,56,54,51,94,73,50,29.87,29.80,9,1,10,0.00
2013-9-18,81,67,56,52,48,41,81,55,25,29.90,29.81,5,1,8,0.00
2013-9-19,87,71,58,50,44,39,66,41,20,29.84,29.73,7,1,7,0.00
2013-9-20,70,62,53,61,55,48,93,78,61,29.83,29.74,6,1,10,0.00
2013-9-21,64,61,56,60,57,53,95,88,80,29.89,29.79,6,0,7,0.53
2013-9-22,68,60,52,57,53,51,97,79,56,29.99,29.89,4,1,8,0.00
2013-9-23,77,65,54,60,55,51,91,71,47,30.01,29.92,6,1,8,0.00
2013-9-24,72,62,57,56,53,48,92,73,51,29.97,29.88,11,2,14,0.00
2013-9-25,66,59,55,48,47,44,78,65,46,29.92,29.81,9,3,16,0.00
2013-9-26,71,60,51,47,43,37,80,55,30,29.98,29.83,8,2,11,0.00
2013-9-27,75,62,50,45,39,33,73,45,23,30.09,29.98,3,1,6,0.00
2013-9-28,81,66,54,55,40,32,88,43,20,30.07,29.99,3,0,5,0.00
2013-9-29,71,63,55,60,57,53,96,82,65,30.09,30.04,3,1,6,0.00
2013-9-30,70,64,58,63,60,48,95,84,68,30.06,29.95,3,0,6,0.01
2013-10-1,70,60,51,52,49,44,92,68,48,30.00,29.91,4,0,6,0.00
2013-10-2,73,62,53,53,48,42,85,63,43,30.00,29.92,6,1,11,0.00
2013-10-3,70,62,52,44,36,26,72,42,19,30.06,29.95,10,3,16,0.00
2013-10-4,75,68,58,31,28,26,34,23,16,30.09,29.97,6,1,17,0.00
2013-10-5,79,68,57,33,29,25,40,24,16,30.20,30.09,3,0,8,0.00
2013-10-6,82,68,57,39,34,30,40,29,18,30.11,29.98,3,0,5,0.00
2013-10-7,80,66,56,44,33,23,60,31,12,29.98,29.85,4,1,8,0.00
2013-10-8,72,61,52,47,44,40,81,58,32,29.88,29.70,5,1,7,0.00
2013-10-9,66,57,49,48,45,41,92,67,43,29.75,29.62,4,0,8,0.00
2013-10-10,70,58,50,49,45,38,90,62,39,29.99,29.75,3,0,5,0.00
2013-10-11,67,55,47,52,48,42,95,79,44,30.08,29.97,5,1,7,0.00
2013-10-12,68,55,47,51,47,44,93,75,47,29.99,29.89,2,0,4,0.00
2013-10-13,70,58,48,50,44,39,94,63,33,30.06,29.90,3,1,6,0.00
2013-10-14,73,61,51,41,39,35,69,45,26,30.12,30.00,4,1,8,0.00
2013-10-15,75,63,51,38,35,31,59,37,20,30.04,29.95,5,1,10,0.00
2013-10-16,78,65,55,37,34,30,48,32,21,30.08,29.99,3,0,4,0.00
2013-10-17,78,65,55,39,34,30,47,33,18,30.07,29.95,2,0,6,0.00
2013-10-18,78,66,54,44,37,30,60,36,21,30.03,29.97,2,0,4,0.00
2013-10-19,79,66,54,43,41,38,59,43,26,30.06,29.98,4,0,5,0.00
2013-10-20,80,65,53,47,42,39,66,47,23,30.00,29.89,6,1,7,0.00
2013-10-21,75,60,48,53,48,43,92,66,35,29.98,29.89,3,0,3,0.00
2013-10-22,77,59,46,53,48,44,95,71,34,30.00,29.90,3,1,4,0.00
2013-10-23,73,56,46,54,49,45,96,79,50,29.96,29.87,3,1,5,0.00
2013-10-24,59,52,48,50,48,46,96,85,72,30.09,29.95,3,0,5,0.00
2013-10-25,71,56,46,52,48,45,97,76,42,30.16,30.08,4,0,6,0.00
2013-10-26,77,62,51,50,46,42,82,60,30,30.13,30.00,2,0,5,0.00
2013-10-27,60,53,48,51,47,40,92,79,52,30.00,29.64,12,2,15,0.00
2013-10-28,59,52,45,48,46,42,93,79,60,29.84,29.66,5,1,8,0.00
2013-10-29,60,54,46,49,47,44,91,78,60,30.05,29.84,3,0,5,0.00
2013-10-30,64,53,45,50,46,42,95,78,53,30.15,30.05,5,1,6,0.00
2013-10-31,70,56,45,47,44,40,84,65,40,30.17,30.07,2,0,4,0.00
2013-11-1,70,60,50,47,44,43,79,59,40,30.14,30.01,2,0,6,0.00
2013-11-2,70,59,51,52,46,42,86,65,40,30.02,29.89,7,1,10,0.00
2013-11-3,62,54,46,45,38,28,79,58,28,30.04,29.92,6,2,8,0.00
2013-11-4,66,56,44,41,33,21,82,49,18,30.07,29.91,9,2,11,0.00
2013-11-5,68,59,50,37,34,31,52,40,29,30.21,30.07,5,0,6,0.00
2013-11-6,68,58,49,42,38,34,67,47,33,30.25,30.16,3,0,4,0.00
2013-11-7,72,61,54,46,39,33,74,47,25,30.16,30.06,4,0,6,0.00
2013-11-8,70,57,47,51,47,44,93,70,41,30.07,29.95,5,1,9,0.00
2013-11-9,68,57,48,49,45,37,86,64,46,30.03,29.96,3,0,4,0.00
2013-11-10,64,54,48,52,48,44,94,84,64,30.11,30.02,4,1,7,0.00
2013-11-11,64,53,47,53,48,46,97,84,56,30.15,30.08,3,0,4,0.00
2013-11-12,68,59,53,52,46,44,89,64,49,30.26,30.19,5,1,6,0.01
2013-11-13,73,60,50,51,49,45,90,67,41,30.24,30.08,4,1,6,0.00
2013-11-14,68,56,49,54,48,39,94,76,55,30.09,29.86,8,1,9,0.00
2013-11-15,62,53,48,44,40,36,84,61,40,29.86,29.72,6,2,8,0.00
2013-11-16,60,52,45,49,45,40,94,78,52,29.93,29.76,7,1,8,0.00
2013-11-17,59,52,47,49,47,44,94,84,64,30.08,29.93,2,0,3,0.00
2013-11-18,57,50,44,49,46,42,96,86,69,30.15,30.08,5,0,7,0.00
2013-11-19,59,54,50,55,51,47,96,91,80,30.10,29.95,0,0,3,0.52
2013-11-20,57,55,51,57,54,50,98,97,96,29.94,29.84,2,0,8,0.51
2013-11-21,58,53,47,50,39,22,98,65,28,29.99,29.88,13,1,20,0.07
2013-11-22,66,58,52,26,18,10,37,21,14,30.03,29.91,14,2,17,0.00
2013-11-23,61,54,48,45,33,25,87,47,27,30.10,29.97,6,1,11,0.00
2013-11-24,59,50,42,47,43,39,95,78,52,30.25,30.09,2,0,4,0.00
2013-11-25,59,50,43,46,42,39,88,76,61,30.33,30.25,2,0,4,0.00
2013-11-26,58,51,46,43,42,39,85,72,53,30.27,30.05,4,0,7,0.00
2013-11-27,59,52,46,47,45,42,90,78,61,30.04,29.86,4,0,5,0.00
2013-11-28,64,56,49,44,42,40,77,61,44,30.07,29.88,4,0,7,0.00
2013-11-29,64,54,48,45,43,40,81,66,49,30.21,30.07,2,0,6,0.00
2013-11-30,62,53,46,47,44,42,85,71,54,30.27,30.19,2,0,3,0.00
2013-12-1,66,56,48,46,44,42,81,65,46,30.33,30.22,2,0,5,0.00
2013-12-2,63,55,49,53,47,43,91,75,54,30.22,29.95,8,2,12,0.00
2013-12-3,55,48,39,53,35,21,91,63,36,29.94,29.84,8,3,15,0.00
2013-12-4,47,42,33,32,21,15,81,45,30,30.08,29.94,4,1,6,0.00
2013-12-5,45,38,30,29,18,13,77,47,29,30.17,30.08,2,0,4,0.00
2013-12-6,49,42,34,47,35,27,95,77,50,30.20,29.90,7,0,13,0.60
2013-12-7,46,39,32,45,32,26,95,78,52,30.25,29.91,10,2,16,0.01
2013-12-8,39,34,29,30,24,18,93,67,46,30.33,30.23,4,0,9,0.00
2013-12-9,45,37,32,25,19,14,74,49,34,30.43,30.32,5,1,8,0.00
2013-12-10,48,39,32,29,26,24,81,62,42,30.41,30.22,5,0,6,0.00
2013-12-11,51,44,34,32,29,23,80,56,40,30.26,30.20,3,0,8,0.00
2013-12-12,54,45,39,35,33,30,80,64,44,30.27,30.17,2,0,4,0.00
2013-12-13,56,45,38,40,35,30,90,69,40,30.33,30.23,2,0,4,0.00
2013-12-14,55,48,43,38,34,27,74,58,42,30.41,30.31,2,0,6,0.00
2013-12-15,59,49,43,39,34,29,76,57,40,30.37,30.25,3,0,6,0.00
2013-12-16,63,54,48,37,33,31,62,46,31,30.26,30.14,4,0,7,0.00
2013-12-17,62,52,45,42,37,32,76,57,42,30.18,30.03,2,0,5,0.00
2013-12-18,61,52,46,46,39,31,90,64,44,30.03,29.75,4,0,7,0.00
2013-12-19,56,49,43,43,33,17,88,57,32,29.94,29.71,7,2,10,0.00
2013-12-20,58,48,39,30,20,13,52,33,17,30.01,29.93,4,1,7,0.00
2013-12-21,59,51,44,47,42,28,90,71,43,30.09,29.96,6,1,9,0.00
2013-12-22,59,52,46,46,39,36,91,63,44,30.28,30.09,3,0,7,0.00
2013-12-23,59,50,42,42,39,36,82,65,49,30.39,30.28,1,0,5,0.00
2013-12-24,63,55,49,43,40,36,68,57,47,30.34,30.21,3,0,4,0.00
2013-12-25,60,54,44,43,38,33,80,56,43,30.30,30.21,2,0,10,0.00
2013-12-26,62,54,46,40,36,31,70,52,36,30.26,30.18,4,0,7,0.00
2013-12-27,59,50,44,43,38,31,82,66,49,30.24,30.12,3,0,4,0.00
2013-12-28,63,52,42,35,32,26,75,49,29,30.15,30.04,4,1,5,0.00
2013-12-29,62,53,46,32,25,19,57,34,22,30.18,30.10,3,0,9,0.00
2013-12-30,60,50,42,40,36,31,78,61,47,30.26,30.18,3,0,4,0.00
2013-12-31,58,50,44,41,34,30,76,55,36,30.27,30.16,2,0,6,0.00
2014-1-1,63,53,43,36,31,29,65,45,28,30.21,30.13,3,0,4,0.00
2014-1-2,62,54,44,37,34,31,66,48,34,30.18,30.05,3,0,5,0.00